Terug naar catalogus

SL-8 R/B

ActiefPO
NORAD 6149·ROCKET BODY·🇷🇺 Russia

Gelanceerd Aug 16, 1972 vanaf Plesetsk Cosmodrome

Loading…

Volgende Passages (komende 24 uur)

TLE

VersSource: Space-Track

Epoch: Sep 14, 2026, 14:48 UTC

1 06149U 72062B   26257.61683117  .00000102  00000-0  79054-4 0  9994
2 06149  82.9713 204.9365 0009705 126.9359 233.2692 13.83247669727953

Volg SL-8 R/B in realtime met AllMySat

Download on the App Store